Location: Unspecified
(0.0000°N, 0.0000°E)
Time: 03:14:05
(UTC+00:00)

STARLINK-2090 - Pass Details

Date: 24 February 2021
Orbit: 316 x 320 km, 53.1° (Epoch: 23 February)

Event Time Altitude Azimuth Distance (km) Brightness Sun altitude
Exits shadow 05:21:16 - 347° (NNW) 1,665 5.9 -12.8°
Reaches altitude 10° 05:22:26 10° 356° (N) 1,227 5.3 -12.5°
Maximum altitude 05:24:46 25° 56° (NE) 689 4.7 -11.9°
Drops below altitude 10° 05:27:07 10° 115° (ESE) 1,229 6.8 -11.4°
Sets 05:29:16 0° 129° (SE) 2,061 7.7 -10.8°
